This demonstration page uses our WeatherBlox Daily Observations layout. Learn more.

Left ArrowRight Arrow

34.74481, -87.66753

Hourly Observations for October 27, 2019

Temp ( °F °C ) Dew Point ( °F °C ) Humidity (%) Winds ( mph kmh ) Pressure ( in mb ) Visibility ( mi km ) Precip ( " mm )
12:53 am 00:53 Cloudy 58 14.4 53 11.7 84 84 WNW 10 17 29.87 1012 10 16 0.00 0.00
1:53 am 01:53 Cloudy 58 14.4 52 11.1 81 81 W 6 9 29.90 1013 10 16 0.00 0.00
2:53 am 02:53 Cloudy 58 14.4 53 11.7 84 84 W 6 9 29.91 1013 10 16 0.00 0.00
3:53 am 03:53 Cloudy 58 14.4 53 11.7 84 84 W 7 11 29.92 1013 10 16 0.00 0.00
4:53 am 04:53 Cloudy 58 14.4 54 12.2 87 87 NW 3 6 29.93 1014 10 16 0.00 0.00
5:53 am 05:53 Cloudy 57 13.9 54 12.2 90 90 WSW 3 6 29.94 1014 10 16 0.00 0.00
6:53 am 06:53 Cloudy 58 14.4 54 12.2 87 87 Calm 29.96 1015 10 16 0.00 0.00
7:53 am 07:53 Cloudy 58 14.4 54 12.2 87 87 NNW 3 6 29.99 1016 10 16 0.00 0.00
8:05 am 08:05 Cloudy 58 14.4 54 12.2 87 87 NW 5 7 30.00 1016 10 16 0.00 0.00
8:53 am 08:53 Cloudy 58 14.4 54 12.2 87 87 SW 5 7 30.02 1017 10 16 0.00 0.00
9:53 am 09:53 Cloudy 60 15.6 54 12.2 80 80 Calm 30.03 1017 10 16 0.00 0.00
10:53 am 10:53 Cloudy 61 16.1 53 11.7 75 75 E 3 6 30.04 1017 10 16 0.00 0.00
11:53 am 11:53 Cloudy 63 17.2 53 11.7 70 70 NE 3 6 30.04 1017 10 16 0.00 0.00
12:53 pm 12:53 Cloudy 64 17.8 52 11.1 65 65 Calm 30.04 1017 10 16 0.00 0.00
1:53 pm 13:53 Cloudy 64 17.8 53 11.7 68 68 SSE 5 7 30.03 1017 10 16 0.00 0.00
2:53 pm 14:53 Cloudy 63 17.2 53 11.7 70 70 S 3 6 30.03 1017 10 16 0.00 0.00
3:53 pm 15:53 Cloudy 64 17.8 53 11.7 68 68 S 3 6 30.04 1017 10 16 0.00 0.00
4:53 pm 16:53 Cloudy 63 17.2 53 11.7 70 70 Calm 30.04 1017 10 16 0.00 0.00
5:53 pm 17:53 Cloudy 63 17.2 54 12.2 73 73 Calm 30.04 1017 10 16 0.00 0.00
6:53 pm 18:53 Cloudy 62 16.7 55 12.8 78 78 Calm 30.05 1018 10 16 0.00 0.00
7:53 pm 19:53 Cloudy 62 16.7 52 11.1 70 70 E 5 7 30.05 1018 10 16 0.00 0.00
8:53 pm 20:53 Cloudy 62 16.7 53 11.7 73 73 Calm 30.05 1018 10 16 0.00 0.00
9:53 pm 21:53 Cloudy 60 15.6 54 12.2 80 80 Calm 30.06 1018 10 16 0.00 0.00
10:53 pm 22:53 Cloudy 60 15.6 54 12.2 80 80 Calm 30.05 1018 10 16 0.00 0.00
11:53 pm 23:53 Cloudy 60 15.6 55 12.8 84 84 Calm 30.05 1018 10 16 0.00 0.00

Powered by AerisWeather